www.pogodaiklimat.ru

Погода и климат >> Архив погоды >> Лаос >> Attapeu


ПОГОДА в Attapeu

  • Прогноз погоды в Attapeu
  • Монитор погоды в Attapeu
  • Климат города

АРХИВ ПОГОДЫ в Attapeu

Время (UTC), дата Ветер
(напр.,м/с)
 
Видим.   Явления Облачность Т
(С)
Тd
(С)
f
(%)
Тe
(С)
Тes
(С)
Комфортность P
(гПа)
Po
(гПа)
Тmin
(С)
Tmax
(С)
R
(мм)
S
(см)
00 14.02 штиль 0 15 км ясно +18.5 +15.1 81 +19 +21 1019.6 1007.8 +18.0
03 14.02 18 км н/о +26.5 +15.0 49 +29 +41 жарко 1020.7 1009.8
06 14.02 С 2 18 км 3/3 600 м
[Cu hum Ci fib]
+30.6 +14.3 37 +32 +44 жарко 1016.8 1006.1
09 14.02 С 2 18 км 4/3 600 м
[Cu hum Ci fib]
+32.0 +15.1 36 +34 +36 душно 1015.5 1004.6
12 14.02 С 1 3000 м дымка {туман} 5/4 600 м
[Cu med, cong Ci sp]
+27.0 +15.6 50 +30 +30 душно 1016.6 1005.7 +32.5
03 15.02 С 1 18 км 1/1 600 м
[Cu hum]
+27.5 +16.2 50 +31 +45 душно 1018.1 1007.3
06 15.02 С 2 18 км 5/4 600 м
[Cu med, cong Ci sp]
+29.5 +15.0 41 +32 +41 душно 1015.7 1005.0
09 15.02 С 1 15 км 6/4 600 м
[Cu med, cong Ac trans Ci sp]
+31.5 +14.3 35 +33 +35 жарко 1012.7 1002.1
12 15.02 С 1 2000 м дымка {туман} 3/3 600 м
[Cu hum Ci fib]
+26.5 +15.9 52 +30 +30 душно 1014.3 1003.5 +31.5
00 16.02 штиль 0 18 км 1/1 600 м
[Cu hum]
+18.6 +14.1 75 +19 +21 1015.9 1004.8 +18.5
03 16.02 С 1 18 км 1/1 600 м
[Cu hum]
+26.0 +20.7 73 +33 +47 очень
душно
1016.8 1006.0
06 16.02 С 1 18 км 3/1 600 м
[Cu hum]
+31.3 +15.1 38 +34 +49 душно 1013.4 1002.8
09 16.02 В 1 18 км 5/4 600 м
[Cu med, cong Ci sp]
+32.6 +13.4 31 +34 +36 очень
жарко
1010.5 1000.0
12 16.02 С 1 4000 м дымка {туман} 3/3 600 м
[Cu hum Ci fib]
+28.8 +16.3 47 +32 +32 душно 1011.6 1000.9 +32.5
00 17.02 СЗ 1 15 км 1/1 600 м
[Cu hum]
+18.0 +17.0 94 +19 +20 1016.5 1005.4 +17.5
03 17.02 В 1 15 км 5/4 600 м
[Cu med, cong Ci sp]
+26.5 +13.9 46 +29 +38 жарко 1016.7 1005.6
06 17.02 З 1 15 км 6/4 600 м
[Cu med, cong Ac trans Ci sp]
+32.0 +15.1 36 +34 +44 душно 1013.4 1002.3
09 17.02 Ю 1 18 км 5/4 600 м
[Cu med, cong Ci sp]
+34.0 +16.8 36 +37 +39 очень
душно
1010.4 999.6
12 17.02 В 1 3000 м дымка {туман} 5/4 600 м
[Cu med, cong Ci sp]
+29.5 +19.6 55 +35 +35 очень
душно
1011.2 1000.4 +34.0
00 18.02 штиль 0 15 км 4/3 600 м
[Cu Sc Ci fib]
+21.0 +16.9 77 +24 +25 комфорт 1015.3 1004.4 +20.5
03 18.02 В 1 18 км 1/1 600 м
[Cu hum Ci fib]
+28.0 +16.9 51 +32 +46 душно 1015.4 1004.6
06 18.02 С 1 18 км 3/3 600 м
[Cu hum Ci fib]
+32.6 +18.7 44 +38 +51 опасность
солнечного
удара
1012.6 1002.1
09 18.02 В 5 18 км 5/4 600 м
[Cu med, cong Ci sp]
+32.8 +17.6 40 +37 +38 очень
душно
1010.4 999.9
12 18.02 В 1 3000 м дымка {туман} 3/3 600 м
[Cu hum Ci fib]
+26.5 +17.8 59 +31 +31 душно 1012.5 1001.7 +33.5
00 19.02 штиль 0 15 км 1/1 600 м
[Cu hum Ci fib]
+19.6 +16.1 80 +22 +23 комфорт 1013.3 1002.3 +19.3
03 19.02 В 1 15 км 3/3 600 м
[Cu hum Ci fib]
+27.5 +16.2 50 +31 +42 душно 1015.0 1004.3
06 19.02 С 1 18 км 3/3 600 м
[]
+32.0 +18.1 44 +37 +50 очень
душно
1010.5 999.9
09 19.02 Ю 1 18 км 5/4 600 м
[Cu med, cong Ac trans Ci sp]
+34.0 +18.8 41 +39 +41 очень
душно
1007.3 996.9
00 20.02 З 1 15 км 3/3 600 м
[Cu hum Ci fib]
+20.8 +18.7 88 +26 +27 душно 1011.1 1000.2 +20.0
03 20.02 ЮЗ 1 10 км 3/3 600 м
[Cu hum Ci fib]
+28.0 +19.6 60 +34 +45 очень
душно
1011.1 1000.4
06 20.02 С 1 15 км 3/3 600 м
[Cu hum Ci fib]
+33.0 +20.3 47 +39 +53 опасность
солнечного
удара
1007.9 997.4
09 20.02 Ю 1 10 км 3/3 600 м
[Cu hum Ci fib]
+35.0 +18.7 38 +39 +42 очень
душно
1005.3 995.0

 

Местоположение метеостанции Attapeu (Лаос): широта 14.80 долгота 106.83 высота над уровнем моря 105 м.

В архиве по умолчанию представлена погода в Attapeu за последнюю неделю. Архивные данные за месяц целиком и за предыдущие месяцы, начиная с января 2011 года, Вы можете получить, выбрав интересующий диапазон дат из раскрывающегося списка и нажав кнопку "Ввод!".

Внимание! Время в таблицах - всемирное. Для получения местного времени необходимо прибавить поправку, которая в Attapeu равна 7 ч.

Смотрите также архив погоды в соседних городах и на ближайших метеорологических станциях:

Погода в Sekong (Лаос) (61 км)
Погода в Saravane (Лаос) (107 км)
Погода в Pakse (Лаос) (118 км)
Погода в Pleiku City (Вьетнам) (156 км)
Погода в Hue (Вьетнам) (198 км)
Погода в Quang Ngai (Вьетнам) (213 км)
Погода в Da Nang (Вьетнам) (216 км)
Погода в Ubon Ratchathani (Таиланд) (217 км)
Погода в Banmethuot (Вьетнам) (272 км)
Погода в Si Saket Agromet (Таиланд) (278 км)

Пояснения к столбцам:

Ветер - указаны скорость ветра в м/с - средняя за 10 мин, порывы в срок и между сроками (в фигурных скобках) и направление, откуда дует ветер: С - северный, СВ - северо-восточный, В - восточный, ЮВ - юго-восточный, Ю - южный, ЮЗ - юго-западный, З - западный, СЗ - северо-западный.
Видимость - горизонтальная дальность видимости в метрах или километрах. При видимости от 1 до 10 км при отсутствии осадков обычно наблюдается дымка, при ухудшении видимости до 1 км и менее - туман. В сухую погоду видимость может ухудшаться дымом, пылью или мглою.
Явления - указаны атмосферные явления, наблюдавшиеся в срок или в последний час перед сроком; фигурными скобками обозначены явления, наблюдавшиеся между сроками (за 1-3 часа до срока); квадратными скобками обозначены град или гололедные отложения с указанием их диаметра в мм.
Облачность - указаны через наклонную черту общая и нижняя облачность в баллах и высота нижней границы облаков в метрах; квадратными скобками обозначены формы облаков: Ci - перистые, Cs - перисто-слоистые, Cc - перисто-кучевые, Ac - высококучевые, As - высокослоистые, Sc - слоисто-кучевые, Ns - слоисто-дождевые, Cu - кучевые, Cb - кучево-дождевые. Подробнее классификацию облаков см. в Атласе облаков (PDF).
T - Температура воздуха - температура, измеренная на высоте 2 м над землей.
Td - Температура точки росы - температура, при понижении до которой содержащийся в воздухе водяной пар достигнет насыщения.
f - Относительная влажность воздуха - влажноcть воздуха, измеренная на высоте 2 м над землей.
Te - Эффективная температура - температура, которую ощущает одетый по сезону человек в тени. Характеристика душности погоды. При расчете учитывается влияние влажности воздуха и скорости ветра на теплоощущения человека.
Tes - Эффективная температура на солнце - температура, которую ощущает человек, с поправкой на солнечный нагрев. Характеристика знойности погоды. Зависит от высоты солнца над горизонтом, облачности и скорости ветра. Ночью, в пасмурную погоду, а также при ветре 12 м/с и более поправка равна нулю.
P - Атмосферное давление - приведенное к уровню моря атмосферное давление.
Po - Атмосферное давление - измеренное на уровне метеостанции атмосферное давление.
Tmin - Минимальная температура - минимум температуры воздуха на высоте 2 м над землей.
Tmax - Максимальная температура - максимум температуры воздуха на высоте 2 м над землей.
R - Количество осадков - Количество выпавших осадков, мм. При наведении курсора мыши на число - период времени, за который выпало указанное количество осадков.
S - Снежный покров - Высота снежного покрова, см. При наведении курсора мыши на число - состояние снежного покрова и степень покрытия местности в баллах.